| time (UTC) | temp F | wind direction | speed MPH | gust MPH | rain 1hr in | rain 24hr in | rain mn in | humidity % | barometer mb |
| 20260903123046 | 69 | 262 | 5.0 | 10.0 | 0.00 | 0.47 | 0.05 | 97 | 1005.1 |
| 20260903121246 | 69 | 270 | 4.0 | 9.0 | 0.00 | 0.47 | 0.05 | 98 | 1005.1 |
| 20260903120346 | 69 | 243 | 4.0 | 7.0 | 0.00 | 0.47 | 0.05 | 98 | 1004.9 |
| 20260903115446 | 69 | 247 | 4.0 | 7.0 | 0.00 | 0.47 | 0.05 | 98 | 1005.0 |
| 20260903113647 | 69 | 234 | 6.0 | 9.0 | 0.00 | 0.47 | 0.05 | 98 | 1005.1 |
| 20260903112746 | 69 | 235 | 7.0 | 9.0 | 0.00 | 0.47 | 0.05 | 98 | 1005.0 |
| 20260903110946 | 69 | 276 | 6.0 | 11.0 | 0.00 | 0.47 | 0.05 | 98 | 1005.3 |
| 20260903105146 | 69 | 268 | 7.0 | 15.0 | 0.00 | 0.47 | 0.05 | 98 | 1005.5 |
| 20260903104246 | 69 | 250 | 6.0 | 11.0 | 0.00 | 0.47 | 0.05 | 98 | 1005.0 |
| 20260903102446 | 69 | 249 | 6.0 | 12.0 | 0.00 | 0.47 | 0.05 | 98 | 1004.8 |
| 20260903101546 | 69 | 281 | 6.0 | 11.0 | 0.00 | 0.47 | 0.05 | 98 | 1004.8 |
| 20260903100646 | 69 | 263 | 5.0 | 14.0 | 0.00 | 0.47 | 0.05 | 98 | 1004.7 |
| 20260903095746 | 69 | 254 | 7.0 | 13.0 | 0.00 | 0.47 | 0.05 | 98 | 1004.6 |
| 20260903093946 | 69 | 231 | 10.0 | 13.0 | 0.00 | 0.47 | 0.05 | 98 | 1004.2 |
| 20260903093046 | 69 | 223 | 9.0 | 13.0 | 0.00 | 0.47 | 0.05 | 98 | 1004.1 |
| 20260903091246 | 68 | 229 | 9.0 | 13.0 | 0.00 | 0.47 | 0.05 | 98 | 1004.1 |
| 20260903090346 | 68 | 228 | 8.0 | 13.0 | 0.00 | 0.47 | 0.05 | 98 | 1004.3 |
| 20260903084546 | 68 | 212 | 6.0 | 11.0 | 0.00 | 0.47 | 0.05 | 98 | 1004.5 |
| 20260903082746 | 68 | 209 | 5.0 | 9.0 | 0.01 | 0.47 | 0.05 | 98 | 1004.6 |
| 20260903081846 | 68 | 218 | 7.0 | 11.0 | 0.01 | 0.47 | 0.05 | 98 | 1004.8 |
| 20260903080946 | 68 | 226 | 6.0 | 9.0 | 0.01 | 0.47 | 0.05 | 98 | 1005.0 |
| 20260903080046 | 68 | 244 | 4.0 | 7.0 | 0.01 | 0.47 | 0.05 | 98 | 1005.2 |
| 20260903073346 | 68 | 285 | 8.0 | 11.0 | 0.00 | 0.46 | 0.04 | 98 | 1005.8 |
| 20260903072446 | 68 | 283 | 7.0 | 11.0 | 0.00 | 0.46 | 0.04 | 98 | 1005.8 |
| 20260903071546 | 68 | 283 | 5.0 | 9.0 | 0.00 | 0.46 | 0.04 | 97 | 1005.6 |
| 20260903070646 | 68 | 290 | 8.0 | 10.0 | 0.01 | 0.46 | 0.04 | 97 | 1005.5 |
| 20260903065746 | 68 | 295 | 6.0 | 10.0 | 0.01 | 0.46 | 0.04 | 97 | 1005.5 |
| 20260903063946 | 68 | 160 | 3.0 | 7.0 | 0.02 | 0.46 | 0.04 | 96 | 1005.3 |
| 20260903063046 | 68 | 157 | 4.0 | 10.0 | 0.03 | 0.46 | 0.04 | 96 | 1005.4 |
| 20260903062146 | 68 | 161 | 7.0 | 13.0 | 0.04 | 0.46 | 0.04 | 96 | 1005.5 |
| 20260903061245 | 68 | 166 | 9.0 | 14.0 | 0.04 | 0.46 | 0.04 | 96 | 1005.5 |
| 20260903060346 | 68 | 169 | 7.0 | 11.0 | 0.03 | 0.45 | 0.03 | 96 | 1006.2 |
| 20260903054546 | 68 | 212 | 3.0 | 8.0 | 0.02 | 0.44 | 0.02 | 96 | 1006.5 |
| 20260903053646 | 68 | 212 | 3.0 | 7.0 | 0.01 | 0.43 | 0.01 | 96 | 1006.9 |
| 20260903052746 | 68 | 160 | 4.0 | 8.0 | 0.00 | 0.42 | 0.00 | 95 | 1006.9 |
| 20260903051846 | 68 | 160 | 5.0 | 7.0 | 0.00 | 0.42 | 0.00 | 95 | 1007.1 |
| 20260903050946 | 68 | 152 | 3.0 | 9.0 | 0.00 | 0.42 | 0.00 | 94 | 1007.1 |
| 20260903050046 | 68 | 160 | 2.0 | 9.0 | 0.00 | 0.42 | 0.00 | 94 | 1007.0 |
| 20260903045146 | 68 | 156 | 3.0 | 9.0 | 0.00 | 0.42 | 0.00 | 94 | 1007.1 |
| 20260903044246 | 68 | 143 | 2.0 | 7.0 | 0.00 | 0.42 | 0.00 | 94 | 1007.2 |
| 20260903043346 | 68 | 130 | 4.0 | 9.0 | 0.00 | 0.42 | 0.00 | 94 | 1007.2 |
| 20260903042447 | 68 | 148 | 3.0 | 8.0 | 0.00 | 0.42 | 0.00 | 94 | 1007.4 |
| 20260903040646 | 68 | 135 | 2.0 | 8.0 | 0.00 | 0.42 | 0.00 | 95 | 1007.6 |
| 20260903035746 | 67 | 144 | 2.0 | 11.0 | 0.00 | 0.42 | 0.00 | 95 | 1007.5 |
| 20260903034846 | 67 | 129 | 2.0 | 8.0 | 0.00 | 0.42 | 0.00 | 95 | 1007.4 |
| 20260903033946 | 67 | 135 | 7.0 | 12.0 | 0.00 | 0.42 | 0.00 | 96 | 1007.2 |
| 20260903033046 | 67 | 135 | 6.0 | 12.0 | 0.00 | 0.42 | 0.00 | 95 | 1007.3 |
| 20260903032146 | 67 | 137 | 6.0 | 11.0 | 0.00 | 0.42 | 0.00 | 95 | 1007.5 |
| 20260903031246 | 67 | 138 | 6.0 | 11.0 | 0.00 | 0.42 | 0.00 | 95 | 1007.6 |
| 20260903030346 | 67 | 136 | 7.0 | 12.0 | 0.00 | 0.42 | 0.00 | 96 | 1007.9 |
| 20260903025446 | 67 | 135 | 10.0 | 15.0 | 0.00 | 0.42 | 0.00 | 95 | 1008.0 |
| 20260903024546 | 66 | 131 | 10.0 | 14.0 | 0.00 | 0.42 | 0.00 | 95 | 1007.8 |
| 20260903023646 | 66 | 131 | 10.0 | 15.0 | 0.00 | 0.42 | 0.00 | 95 | 1008.0 |
| 20260903022747 | 66 | 128 | 10.0 | 14.0 | 0.00 | 0.42 | 0.00 | 95 | 1007.7 |
| 20260903021846 | 66 | 128 | 10.0 | 14.0 | 0.00 | 0.42 | 0.00 | 95 | 1007.8 |
| 20260903020946 | 66 | 134 | 10.0 | 13.0 | 0.00 | 0.42 | 0.00 | 95 | 1007.9 |
| 20260903020046 | 66 | 129 | 8.0 | 12.0 | 0.00 | 0.42 | 0.00 | 95 | 1008.1 |
| 20260903015146 | 66 | 126 | 7.0 | 13.0 | 0.00 | 0.42 | 0.00 | 95 | 1008.4 |
| 20260903014245 | 66 | 130 | 10.0 | 14.0 | 0.00 | 0.42 | 0.00 | 94 | 1008.1 |
| 20260903013346 | 66 | 130 | 11.0 | 15.0 | 0.00 | 0.42 | 0.00 | 94 | 1008.3 |
| 20260903012446 | 66 | 132 | 10.0 | 14.0 | 0.00 | 0.42 | 0.00 | 94 | 1008.2 |
| 20260903011546 | 66 | 128 | 9.0 | 13.0 | 0.00 | 0.42 | 0.00 | 94 | 1008.5 |
| 20260903010646 | 66 | 126 | 7.0 | 11.0 | 0.00 | 0.42 | 0.00 | 94 | 1008.8 |
| 20260903005746 | 66 | 128 | 5.0 | 8.0 | 0.00 | 0.42 | 0.00 | 94 | 1009.3 |
| 20260903004846 | 66 | 130 | 7.0 | 10.0 | 0.00 | 0.42 | 0.00 | 94 | 1009.1 |
| 20260903003946 | 66 | 127 | 7.0 | 12.0 | 0.00 | 0.42 | 0.00 | 94 | 1008.7 |
| 20260903003046 | 66 | 126 | 8.0 | 12.0 | 0.00 | 0.42 | 0.00 | 94 | 1008.5 |
| 20260903002146 | 66 | 128 | 8.0 | 14.0 | 0.00 | 0.42 | 0.00 | 94 | 1008.3 |
| 20260903001246 | 66 | 120 | 7.0 | 14.0 | 0.00 | 0.42 | 0.00 | 94 | 1007.8 |
| 20260903000347 | 66 | 103 | 8.0 | 14.0 | 0.00 | 0.42 | 0.00 | 94 | 1007.9 |
| 20260902235446 | 66 | 97 | 7.0 | 14.0 | 0.00 | 0.42 | 0.42 | 94 | 1008.0 |
| 20260902234546 | 66 | 92 | 6.0 | 14.0 | 0.00 | 0.42 | 0.42 | 94 | 1008.1 |
| 20260902232746 | 66 | 93 | 7.0 | 14.0 | 0.00 | 0.42 | 0.42 | 95 | 1008.1 |
| 20260902231846 | 66 | 92 | 6.0 | 13.0 | 0.00 | 0.42 | 0.42 | 95 | 1008.2 |
| 20260902230045 | 66 | 101 | 4.0 | 9.0 | 0.00 | 0.42 | 0.42 | 94 | 1009.0 |
| 20260902225146 | 66 | 102 | 5.0 | 11.0 | 0.00 | 0.42 | 0.42 | 94 | 1009.2 |
| 20260902224245 | 66 | 107 | 5.0 | 10.0 | 0.00 | 0.42 | 0.42 | 94 | 1009.3 |
| 20260902223345 | 66 | 107 | 5.0 | 13.0 | 0.00 | 0.42 | 0.42 | 93 | 1009.3 |
| 20260902222446 | 65 | 117 | 5.0 | 12.0 | 0.00 | 0.42 | 0.42 | 94 | 1009.4 |
| 20260902221546 | 65 | 129 | 6.0 | 10.0 | 0.00 | 0.42 | 0.42 | 94 | 1009.4 |
| 20260902220646 | 65 | 133 | 8.0 | 12.0 | 0.00 | 0.42 | 0.42 | 93 | 1009.2 |
| 20260902215746 | 65 | 131 | 7.0 | 12.0 | 0.00 | 0.42 | 0.42 | 93 | 1009.3 |
| 20260902213946 | 65 | 104 | 5.0 | 9.0 | 0.03 | 0.42 | 0.42 | 93 | 1009.4 |
| 20260902213045 | 65 | 98 | 5.0 | 11.0 | 0.04 | 0.42 | 0.42 | 94 | 1009.2 |
| 20260902212146 | 65 | 112 | 5.0 | 10.0 | 0.05 | 0.42 | 0.42 | 94 | 1009.0 |
| 20260902211246 | 65 | 134 | 8.0 | 13.0 | 0.12 | 0.42 | 0.42 | 94 | 1008.8 |
| 20260902210345 | 65 | 137 | 8.0 | 14.0 | 0.21 | 0.42 | 0.42 | 94 | 1008.6 |
| 20260902205445 | 65 | 135 | 9.0 | 14.0 | 0.25 | 0.42 | 0.42 | 94 | 1008.7 |
| 20260902204546 | 65 | 134 | 8.0 | 13.0 | 0.30 | 0.41 | 0.41 | 93 | 1009.0 |
| 20260902203645 | 65 | 139 | 3.0 | 8.0 | 0.38 | 0.38 | 0.38 | 93 | 1009.2 |
| 20260902202745 | 65 | 128 | 6.0 | 10.0 | 0.37 | 0.37 | 0.37 | 92 | 1009.4 |
| 20260902201846 | 65 | 131 | 6.0 | 10.0 | 0.36 | 0.36 | 0.36 | 91 | 1009.4 |
| 20260902200946 | 66 | 126 | 5.0 | 9.0 | 0.27 | 0.27 | 0.28 | 89 | 1009.4 |
| 20260902195145 | 67 | 41 | 4.0 | 12.0 | 0.17 | 0.17 | 0.17 | 88 | 1009.7 |
| 20260902194245 | 69 | 15 | 8.0 | 14.0 | 0.03 | 0.03 | 0.05 | 82 | 1010.1 |
| 20260902193345 | 69 | 126 | 5.0 | 12.0 | 0.00 | 0.00 | 0.00 | 79 | 1009.9 |
| 20260902192446 | 69 | 124 | 7.0 | 14.0 | 0.00 | 0.00 | 0.00 | 78 | 1009.2 |
| 20260902190645 | 70 | 109 | 6.0 | 15.0 | 0.00 | 0.00 | 0.00 | 77 | 1009.2 |
| 20260902185746 | 71 | 105 | 6.0 | 15.0 | 0.00 | 0.00 | 0.00 | 74 | 1009.3 |
| 20260902184845 | 71 | 121 | 7.0 | 13.0 | 0.00 | 0.00 | 0.00 | 75 | 1009.4 |
| 20260902183945 | 71 | 97 | 7.0 | 14.0 | 0.00 | 0.00 | 0.00 | 73 | 1009.2 |
| 20260902182146 | 71 | 128 | 7.0 | 12.0 | 0.00 | 0.00 | 0.00 | 66 | 1009.4 |
| 20260902181246 | 71 | 132 | 7.0 | 12.0 | 0.00 | 0.00 | 0.00 | 66 | 1009.8 |
| 20260902180345 | 71 | 128 | 3.0 | 9.0 | 0.00 | 0.00 | 0.00 | 67 | 1009.9 |
| 20260902174546 | 71 | 122 | 6.0 | 12.0 | 0.00 | 0.00 | 0.00 | 59 | 1010.1 |
| 20260902172745 | 71 | 130 | 7.0 | 14.0 | 0.00 | 0.00 | 0.00 | 64 | 1010.1 |
| 20260902170045 | 71 | 98 | 3.0 | 7.0 | 0.00 | 0.01 | 0.00 | 81 | 1009.8 |
| 20260902165146 | 71 | 92 | 3.0 | 7.0 | 0.00 | 0.01 | 0.00 | 83 | 1009.7 |
| 20260902164245 | 71 | 80 | 3.0 | 7.0 | 0.00 | 0.01 | 0.00 | 82 | 1009.7 |
| 20260902163345 | 71 | 86 | 4.0 | 8.0 | 0.00 | 0.01 | 0.00 | 82 | 1009.9 |
| 20260902161545 | 71 | 78 | 4.0 | 10.0 | 0.00 | 0.05 | 0.00 | 81 | 1010.0 |
| 20260902160645 | 71 | 90 | 6.0 | 11.0 | 0.00 | 0.06 | 0.00 | 81 | 1009.9 |
| 20260902155745 | 71 | 83 | 5.0 | 12.0 | 0.00 | 0.07 | 0.00 | 81 | 1010.0 |
| 20260902154846 | 71 | 96 | 3.0 | 10.0 | 0.00 | 0.08 | 0.00 | 81 | 1010.1 |
| 20260902153045 | 70 | 84 | 6.0 | 13.0 | 0.00 | 0.08 | 0.00 | 81 | 1010.1 |
| 20260902152146 | 70 | 100 | 5.0 | 12.0 | 0.00 | 0.08 | 0.00 | 83 | 1010.2 |
| 20260902150345 | 69 | 44 | 7.0 | 15.0 | 0.00 | 0.09 | 0.00 | 84 | 1010.3 |
| 20260902145445 | 69 | 45 | 8.0 | 15.0 | 0.00 | 0.11 | 0.00 | 84 | 1010.4 |
| 20260902144545 | 69 | 61 | 5.0 | 11.0 | 0.00 | 0.14 | 0.00 | 84 | 1010.1 |
| 20260902143645 | 69 | 69 | 5.0 | 11.0 | 0.00 | 0.15 | 0.00 | 84 | 1010.0 |
| 20260902142746 | 69 | 71 | 4.0 | 10.0 | 0.00 | 0.16 | 0.00 | 83 | 1010.2 |
| 20260902140046 | 68 | 81 | 5.0 | 11.0 | 0.00 | 0.16 | 0.00 | 84 | 1010.2 |
| 20260902134245 | 67 | 83 | 4.0 | 9.0 | 0.00 | 0.18 | 0.00 | 86 | 1009.9 |
| 20260902133345 | 67 | 70 | 3.0 | 8.0 | 0.00 | 0.18 | 0.00 | 86 | 1009.9 |
| 20260902132446 | 67 | 78 | 4.0 | 11.0 | 0.00 | 0.18 | 0.00 | 86 | 1010.0 |
| 20260902131545 | 66 | 90 | 5.0 | 12.0 | 0.00 | 0.18 | 0.00 | 86 | 1009.9 |
| 20260902125746 | 66 | 90 | 5.0 | 13.0 | 0.00 | 0.18 | 0.00 | 87 | 1009.8 |
| 20260902124846 | 66 | 86 | 6.0 | 15.0 | 0.00 | 0.18 | 0.00 | 87 | 1009.7 |
| 20260902123945 | 66 | 89 | 7.0 | 17.0 | 0.00 | 0.18 | 0.00 | 87 | 1009.6 |